Cleveland Burke, OH

8:51 AM EST on December 16, 2017 (GMT -0500)
Burke Lakefront

Weather History for KBKL - January, 2010

Change the Weather History Date:

Tuesday, January 26, 2010

  Actual Average Record
Temperature  
Mean Temperature 28 °F -  
Max Temperature 32 °F 33 °F 53 °F (2002)
Min Temperature 24 °F 21 °F 7 °F (2014)
Degree Days  
Heating Degree Days 37    
Moisture  
Dew Point 20 °F    
Average Humidity 75    
Maximum Humidity 86    
Minimum Humidity 58    
Precipitation  
Precipitation 0.00 in - - ()
Sea Level Pressure  
Sea Level Pressure 29.69 in    
Wind  
Wind Speed 17 mph (WSW)    
Max Wind Speed 28 mph    
Max Gust Speed 37 mph    
Visibility 6 miles    
Events Snow    
Averages and records for this station are not official NWS values.
T = Trace of Precipitation, MM = Missing Value Source: NWS Daily Summary

Daily Weather History Graph

Daily Weather History Graph

Search for Another Location

Airport or City:

Trip Planner

Search our weather history database for the weather conditions in past years. The results will help you decide how hot, cold, wet, or windy it might be!

Date:

Astronomy

Jan. 26, 2010 Rise Set
Actual Time 7:43 AM EST 5:35 PM EST
Civil Twilight 7:14 AM EST 6:04 PM EST
Nautical Twilight 6:40 AM EST 6:38 PM EST
Astronomical Twilight 6:07 AM EST 7:11 PM EST
Moon 1:31 PM EST (1/26) 4:28 AM EST (1/26)
Length of Visible Light 10h 50m
Length of Day
9h 51m
Waxing Gibbous, 83% of the Moon is Illuminated
Jan 26
Waxing Gibbous
Jan 30
Full
Feb 5
Last Quarter
Feb 13
New
Feb 21
First Quarter

Hourly Weather History & Observations

Time (EST) Temp. Windchill Dew Point Humidity Pressure Visibility Wind Dir Wind Speed Gust Speed Precip Events Conditions
12:12 AM 32.0 °F 21.6 °F 24.8 °F 75% 29.49 in 2.5 mi SW 15.0 mph - 0.00 in Snow Light Snow
12:33 AM 30.2 °F 19.8 °F 26.6 °F 86% 29.49 in 6.0 mi SW 13.8 mph - 0.00 in Snow Light Snow
12:45 AM 32.0 °F 21.6 °F 26.6 °F 80% 29.49 in 9.0 mi SW 15.0 mph 23.0 mph 0.00 in Snow Light Snow
12:53 AM 32.0 °F 21.2 °F 26.1 °F 79% 29.50 in 9.0 mi SW 16.1 mph 25.3 mph 0.00 in Snow Light Snow
1:53 AM 32.0 °F 20.1 °F 21.0 °F 64% 29.52 in 10.0 mi WSW 19.6 mph 28.8 mph 0.00 in   Overcast
2:40 AM 28.4 °F 17.0 °F 24.8 °F 86% 29.52 in 2.5 mi SW 15.0 mph 23.0 mph 0.00 in Snow Light Snow
2:53 AM 28.9 °F 16.9 °F 24.1 °F 82% 29.54 in 2.0 mi WSW 17.3 mph 24.2 mph 0.00 in Snow Light Snow
2:56 AM 28.4 °F 14.4 °F 24.8 °F 86% 29.53 in 0.8 mi West 23.0 mph 26.5 mph 0.00 in Snow Light Snow
3:09 AM 28.4 °F 16.2 °F 24.8 °F 86% 29.53 in 2.0 mi WSW 17.3 mph 26.5 mph 0.00 in Snow Light Snow
3:16 AM 28.4 °F 16.6 °F 23.0 °F 80% 29.53 in 9.0 mi WSW 16.1 mph 25.3 mph 0.00 in   Overcast
3:53 AM 28.0 °F 14.9 °F 21.0 °F 75% 29.56 in 7.0 mi WSW 19.6 mph 32.2 mph 0.00 in Snow Light Snow
4:15 AM 28.4 °F 15.4 °F 23.0 °F 80% 29.55 in 1.8 mi SW 19.6 mph 23.0 mph 0.00 in Snow Light Snow
4:26 AM 28.4 °F 15.8 °F 23.0 °F 80% 29.56 in 1.5 mi WSW 18.4 mph - 0.00 in Snow Light Snow
4:39 AM 28.4 °F 14.4 °F 21.2 °F 74% 29.56 in 2.5 mi West 23.0 mph 32.2 mph 0.00 in Snow Light Snow
4:53 AM 27.0 °F 13.9 °F 23.0 °F 85% 29.58 in 2.0 mi SW 18.4 mph 24.2 mph 0.00 in Snow Light Snow
5:03 AM 26.6 °F 13.4 °F 21.2 °F 80% 29.57 in 5.0 mi WSW 18.4 mph 28.8 mph 0.00 in Snow Light Snow
5:21 AM 26.6 °F 10.8 °F 21.2 °F 80% 29.58 in 1.8 mi WSW 27.6 mph 36.8 mph 0.00 in Snow Light Snow
5:33 AM 26.6 °F 12.7 °F 21.2 °F 80% 29.59 in 3.0 mi WSW 20.7 mph 32.2 mph 0.00 in Snow Light Snow
5:51 AM 26.6 °F 13.8 °F 21.2 °F 80% 29.59 in 2.5 mi WSW 17.3 mph 24.2 mph 0.00 in Snow Light Snow
5:53 AM 26.1 °F 12.3 °F 21.9 °F 84% 29.62 in 2.5 mi WSW 19.6 mph 24.2 mph 0.00 in Snow Light Snow
6:02 AM 26.6 °F 15.2 °F 21.2 °F 80% 29.60 in 3.0 mi SW 13.8 mph - 0.00 in Snow Light Snow
6:09 AM 26.6 °F 14.7 °F 21.2 °F 80% 29.60 in 3.0 mi WSW 15.0 mph - 0.00 in Snow Light Snow
6:21 AM 26.6 °F 12.7 °F 19.4 °F 74% 29.61 in 8.0 mi WSW 20.7 mph 25.3 mph 0.00 in Snow Light Snow
6:53 AM 27.0 °F 15.2 °F 19.0 °F 72% 29.64 in 9.0 mi WSW 15.0 mph - 0.00 in Snow Light Snow
7:13 AM 26.6 °F 14.3 °F 19.4 °F 74% 29.63 in 2.5 mi SW 16.1 mph 23.0 mph 0.00 in Snow Light Snow
7:22 AM 26.6 °F 13.8 °F 19.4 °F 74% 29.64 in 6.0 mi WSW 17.3 mph 23.0 mph 0.00 in Snow Light Snow
7:53 AM 26.1 °F 12.3 °F 18.0 °F 71% 29.67 in 10.0 mi WSW 19.6 mph 26.5 mph 0.00 in   Overcast
8:00 AM 26.6 °F 14.3 °F 17.6 °F 69% 29.65 in 10.0 mi WSW 16.1 mph 25.3 mph N/A   Overcast
8:12 AM 26.6 °F 12.7 °F 15.8 °F 64% 29.66 in 10.0 mi SW 20.7 mph 28.8 mph N/A   Overcast
8:53 AM 25.0 °F 10.2 °F 12.9 °F 60% 29.70 in 10.0 mi WSW 21.9 mph 32.2 mph N/A   Overcast
9:53 AM 26.1 °F 12.7 °F 12.9 °F 58% 29.73 in 10.0 mi WSW 18.4 mph 25.3 mph N/A   Clear
10:53 AM 25.0 °F 12.2 °F 14.0 °F 63% 29.76 in 10.0 mi WSW 16.1 mph 26.5 mph N/A   Mostly Cloudy
11:26 AM 24.8 °F 12.4 °F 15.8 °F 69% 29.75 in 9.0 mi WSW 15.0 mph 23.0 mph 0.00 in Snow Light Snow
11:53 AM 25.0 °F 12.6 °F 16.0 °F 69% 29.77 in 10.0 mi WSW 15.0 mph - 0.00 in   Overcast
12:53 PM 26.1 °F 13.1 °F 17.1 °F 69% 29.78 in 10.0 mi SW 17.3 mph - N/A   Overcast
1:53 PM 27.0 °F 15.6 °F 18.0 °F 69% 29.79 in 10.0 mi WSW 13.8 mph - N/A   Overcast
2:53 PM 27.0 °F 13.9 °F 17.1 °F 66% 29.82 in 10.0 mi SW 18.4 mph 25.3 mph N/A   Overcast
3:53 PM 26.1 °F 12.3 °F 17.1 °F 69% 29.86 in 10.0 mi SW 19.6 mph - N/A   Overcast
4:53 PM 26.1 °F 14.5 °F 17.1 °F 69% 29.89 in 8.0 mi SW 13.8 mph - 0.00 in Snow Light Snow
5:53 PM 26.1 °F 12.7 °F 18.0 °F 71% 29.93 in 5.0 mi SW 18.4 mph - 0.00 in Snow Light Snow
7:53 PM 25.0 °F 11.3 °F 18.0 °F 75% 29.97 in 9.0 mi SW 18.4 mph 26.5 mph 0.00 in Snow Light Snow
8:53 PM 25.0 °F 11.7 °F 19.0 °F 78% 29.99 in 6.0 mi SW 17.3 mph - 0.00 in Snow Light Snow
9:53 PM 25.0 °F 10.6 °F 18.0 °F 75% 30.00 in 10.0 mi SW 20.7 mph 25.3 mph 0.00 in   Overcast
10:53 PM 25.0 °F 10.2 °F 17.1 °F 72% 30.00 in 10.0 mi SW 21.9 mph 25.3 mph N/A   Overcast
11:01 PM 24.8 °F 11.5 °F 17.6 °F 74% 29.98 in 10.0 mi SW 17.3 mph 25.3 mph N/A   Overcast
11:30 PM 24.8 °F 11.1 °F 17.6 °F 74% 29.99 in 6.0 mi SW 18.4 mph 25.3 mph 0.00 in Snow Light Snow
11:53 PM 25.0 °F 12.2 °F 17.1 °F 72% 30.02 in 10.0 mi SW 16.1 mph - 0.00 in   Overcast